Simultaneous Nadir Overpasses (SNOs) Predictions

Prediction of SNOs between GOES-17 and LANDSAT-8 Satellite Orbit:

Table of predicted SNOs for the next 14.0 days since TLE Epoch: 12/11/2022
Index Date Time (GOES-17) GOES-17 Lat,Lon LANDSAT-8 Lat,Lon Distance(km) Time Diff (sec)
1 12/11/2022 07:38:19 -0.00,-137.32 -0.79,-140.93 411.24 80
2 12/13/2022 07:26:07 -0.02,-137.31 -0.14,-137.97 75.55 80
3 12/15/2022 07:11:14 -0.03,-137.29 0.46,-135.01 259.76 80
4 12/15/2022 19:32:28 0.03,-137.29 0.64,-140.16 326.14 80
5 12/17/2022 19:22:55 0.03,-137.27 0.03,-137.20 8.56 80
6 12/19/2022 19:10:43 0.03,-137.25 -0.60,-134.23 342.29 80
7 12/20/2022 07:29:26 -0.03,-137.23 -0.49,-139.43 249.61 80
8 12/22/2022 07:19:53 -0.03,-137.19 0.15,-136.47 82.94 80
9 12/24/2022 07:07:39 -0.04,-137.14 0.75,-133.50 414.63 80
10 12/24/2022 19:26:14 0.03,-137.13 0.35,-138.65 172.47 80
